Simultaneous Nadir Overpasses (SNOs) Predictions

Prediction of SNOs between GOES-16 and NOAA-19 Satellite Orbit:

Table of predicted SNOs for the next 14.0 days since TLE Epoch: 3/30/2024
Index Date Time (GOES-16) GOES-16 Lat,Lon NOAA-19 Lat,Lon Distance(km) Time Diff (sec)
1 03/30/2024 14:17:30 0.04, -75.23 0.45, -76.90 191.24 80
2 03/31/2024 14:02:37 0.04, -75.23 -0.29, -73.94 148.31 80
3 04/01/2024 13:50:24 0.03, -75.23 -0.97, -70.96 487.81 80
4 04/03/2024 02:25:02 -0.03, -75.22 -0.81, -78.63 389.91 80
5 04/04/2024 02:12:48 -0.03, -75.22 -0.14, -75.66 50.15 80
6 04/05/2024 01:57:55 -0.03, -75.23 0.54, -72.69 289.89 80
7 04/07/2024 14:17:25 0.03, -75.28 0.51, -77.33 234.39 80
8 04/08/2024 14:07:51 0.03, -75.29 -0.20, -74.36 106.53 80
9 04/09/2024 13:55:38 0.03, -75.31 -0.90, -71.39 447.53 80
10 04/11/2024 02:27:37 -0.02, -75.31 -0.87, -79.07 428.64 80
11 04/12/2024 02:15:24 -0.02, -75.32 -0.17, -76.10 87.64 80
12 04/13/2024 02:00:29 -0.02, -75.34 0.48, -73.11 253.58 80
